Regional Weather Roundup
Issued by NWS

Home | Current Version | Previous Version | Text Only | Print | Product List | Glossary Off
Versions: 1 2 3 4 5 6 7 8 9 10 11 12 13 14 15 16 17 18 19 20 21 22 23 24 25 26 27 28 29 30 31 32 33 34 35 36 37 38 39 40 41 42 43 44 45 46 47 48 49 50

000
ASUS44 KMEG 220500
RWRTN
TENNESSEE HOURLY STATE WEATHER ROUNDUP
NATIONAL WEATHER SERVICE MEMPHIS TN
1100 PM CST SUN DEC 21 2014

TNZ002-004-019-021-049-052-054-088>092-220600-
WEST TENNESSEE

CITY           SKY/WX    TMP DP  RH WIND       PRES   REMARKS
MEMPHIS INTL   PTCLDY    48  41  76 SE10      29.94F
NWS MEMPHIS      N/A     45 N/A N/A MISG        N/A
JACKSON        CLEAR     42  37  82 S3        29.97F
DYERSBURG      MOCLDY    43  27  52 SE7       29.96F
UNION CITY     MOCLDY    39  30  70 SE7       29.95F WCI  34
PARIS          MOCLDY    37  32  81 SE5       29.98F WCI  34
LEXINGTON      MOCLDY    41  37  87 CALM      29.97S
SAVANNAH       CLOUDY    36  36 100 S5        29.99F WCI  32
$$

TNZ008-025-027-028-033-062-065-066-220600-
NORTH MIDDLE TENNESSEE

CITY           SKY/WX    TMP DP  RH WIND       PRES   REMARKS
NASHVILLE      CLEAR     44  38  79 SE7       30.03F
CLARKSVILLE    MOCLDY    40  32  73 E6        30.00F
COOKEVILLE     CLOUDY    46  41  81 S5        30.03F
CROSSVILLE     CLOUDY    45  36  70 CALM      30.06F
$$

TNZ061-075-076-078-094-096-097-220600-
SOUTH MIDDLE TENNESSEE

CITY           SKY/WX    TMP DP  RH WIND       PRES   REMARKS
FAYETTEVILLE   MOCLDY    46  43  87 MISG      30.02F
TULLAHOMA      CLOUDY    46  43  87 SE9       30.04F
WINCHESTER     CLOUDY    46  43  87 SE8       30.04F
SHELBYVILLE    CLEAR     46  43  87 SE8       30.03F
$$

TNZ017-018-042-046-047-220600-
NORTHEAST TENNESSEE

CITY           SKY/WX    TMP DP  RH WIND       PRES   REMARKS
TRI CITIES     MOCLDY    36  33  89 CALM      30.12S
ELIZABETHTON   CLEAR     39  34  81 E6        30.12F WCI  35
$$

TNZ012-013-036-069-073-074-220600-
CENTRAL EAST TENNESSEE

CITY           SKY/WX    TMP DP  RH WIND       PRES   REMARKS
KNOXVILLE      CLOUDY    43  37  79 CALM      30.08F
OAK RIDGE      CLOUDY    45  37  73 CALM      30.10F
GATLINBURG     CLEAR     34  32  93 CALM      30.09F
$$

TNZ083-085-099-220600-
SOUTHEAST TENNESSEE

CITY           SKY/WX    TMP DP  RH WIND       PRES   REMARKS
CHATTANOOGA    CLOUDY    47  40  76 CALM      30.09F
$$

SKY/WX REPORTED AS FAIR MEANS FEW OR NO CLOUDS BELOW
12 THOUSAND FEET.




USA.gov is the U.S. government's official web portal to all federal, state and local government web resources and services.